EW0991 Weather Reports


Display with metric or nautical units.
time (UTC)temp
F
wind
direction
speed
MPH
gust
MPH
rain 1hr
in
rain 24hr
in
rain mn
in
humidity
%
barometer
mb
20260505153044 75 269 0.0 0.0 0.00 0.00 0.00 45 1010.6
20260505151542 75 275 0.0 0.0 0.00 0.00 0.00 44 1010.7
20260505124514 65 264 0.0 0.0 0.00 0.00 0.00 60 1011.5
20260505123009 64 253 0.0 0.0 0.00 0.00 0.00 60 1011.2
20260505121522 63 224 0.0 0.0 0.00 0.00 0.00 64 1011.2
20260505120007 60 225 0.0 0.0 0.00 0.00 0.00 73 1011.2
20260505114505 57 6 0.0 0.0 0.00 0.00 0.00 84 1011.4
20260505113004 56 56 0.0 0.0 0.00 0.00 0.00 86 1011.1
20260505111503 55 56 0.0 0.0 0.00 0.00 0.00 87 1010.9
20260505101548 0 0.0 0.0 0.00 0.00 0.00 1010.7
20260505100106 0 0.0 0.0 0.00 0.00 0.00 1010.7
20260505094542 0 0.0 0.0 0.00 0.00 0.00 1010.6
20260505093035 0 0.0 0.0 0.00 0.00 0.00 1010.7
20260505091536 0 0.0 0.0 0.00 0.00 0.00 1010.6
20260505090026 0 0.0 0.0 0.00 0.00 0.00 1010.8
20260505084524 0 0.0 0.0 0.00 0.00 0.00 1010.8
20260505083031 0 0.0 0.0 0.00 0.00 0.00 1010.5
20260505081516 63 322 0.0 0.0 0.00 0.00 0.00 57 1010.7
20260505080015 63 295 0.0 0.0 0.00 0.00 0.00 57 1010.1
20260505074512 64 200 0.0 0.0 0.00 0.00 0.00 57 1010.1
20260505073009 63 195 0.0 0.0 0.00 0.00 0.00 57 1010.1
20260505071509 63 265 0.0 0.0 0.00 0.00 0.00 58 1010.3
20260505070008 61 243 0.0 0.0 0.00 0.00 0.00 59 1010.3
20260505064506 60 263 0.0 0.0 0.00 0.00 0.00 61 1010.3
20260505063007 60 247 0.0 0.0 0.00 0.00 0.00 62 1010.5
20260505061505 59 271 0.0 0.0 0.00 0.00 0.00 60 1010.5
20260505054621 61 274 0.0 0.0 0.00 0.00 0.00 56 1010.4
20260505053055 62 247 0.0 0.0 0.00 0.00 0.00 53 1010.3
20260505051553 63 259 0.0 0.0 0.00 0.00 0.00 51 1010.4
20260505041558 63 156 0.0 0.0 0.00 0.00 0.00 49 1010.2
20260505040045 63 263 0.0 0.0 0.00 0.00 0.00 48 1010.2
20260505034544 64 145 0.0 0.0 0.00 0.00 0.00 47 1010.0
20260505033045 64 205 0.0 0.0 0.00 0.00 0.00 47 1010.0
20260505031544 64 120 0.0 0.0 0.00 0.00 0.00 46 1010.0
20260505030056 64 117 0.0 0.0 0.00 0.00 0.00 46 1010.1
20260505024543 65 215 0.0 0.0 0.00 0.00 0.00 45 1010.2
20260505023042 65 229 0.0 0.0 0.00 0.00 0.00 44 1010.3
20260505021551 65 151 0.0 0.0 0.00 0.00 0.00 44 1010.5
20260505020052 65 212 0.0 0.0 0.00 0.00 0.00 44 1010.4
20260505014543 65 199 0.0 0.0 0.00 0.00 0.00 43 1010.4
20260505013042 65 153 0.0 0.0 0.00 0.00 0.00 43 1010.3
20260505011540 65 198 0.0 0.0 0.00 0.00 0.00 43 1010.2
20260505004539 65 233 0.0 0.0 0.00 0.00 0.00 44 1010.0
20260505003047 66 129 0.0 0.0 0.00 0.00 0.00 43 1010.0
20260505001540 66 117 0.0 0.0 0.00 0.00 0.00 42 1009.9
20260505000044 67 190 0.0 0.0 0.00 0.00 0.00 41 1009.9
20260504234536 68 186 0.0 0.0 0.00 0.00 0.00 40 1009.8
20260504233044 69 240 0.0 0.0 0.00 0.00 0.00 39 1009.7
20260504231537 70 168 0.0 0.0 0.00 0.00 0.00 38 1009.5
20260504230039 71 206 0.0 0.0 0.00 0.00 0.00 38 1009.5
20260504224541 71 175 0.0 0.0 0.00 0.00 0.00 38 1009.3
20260504223034 72 216 0.0 0.0 0.00 0.00 0.00 36 1009.3
20260504221532 72 170 0.0 0.0 0.00 0.00 0.00 34 1009.4
20260504220030 72 255 0.0 0.0 0.00 0.00 0.00 34 1009.6
20260504214539 72 233 0.0 0.0 0.00 0.00 0.00 34 1009.5
20260504213030 72 221 0.0 0.0 0.00 0.00 0.00 34 1009.6
20260504211527 72 254 0.0 0.0 0.00 0.00 0.00 35 1009.5
20260504210024 72 278 0.0 0.0 0.00 0.00 0.00 34 1009.8
20260504204524 71 249 0.0 0.0 0.00 0.00 0.00 34 1009.8
20260504203022 71 233 0.0 0.0 0.00 0.00 0.00 34 1010.0
20260504201522 71 273 0.0 0.0 0.00 0.00 0.00 35 1010.0
20260504200021 71 228 0.0 0.0 0.00 0.00 0.00 35 1010.2
20260504194518 71 245 0.0 0.0 0.00 0.00 0.00 36 1010.3
20260504193015 71 236 0.0 0.0 0.00 0.00 0.00 34 1010.5
20260504191515 70 240 0.0 0.0 0.00 0.00 0.00 37 1010.6
20260504190012 69 237 0.0 0.0 0.00 0.00 0.00 35 1010.8
20260504184508 69 245 0.0 0.0 0.00 0.00 0.00 37 1011.1
20260504183005 69 235 0.0 0.0 0.00 0.00 0.00 36 1011.2
20260504181504 69 236 0.0 0.0 0.00 0.00 0.00 36 1011.4
20260504180100 69 242 0.0 0.0 0.00 0.00 0.00 38 1011.6
20260504174559 68 252 0.0 0.0 0.00 0.00 0.00 37 1011.7
20260504173057 67 274 0.0 0.0 0.00 0.00 0.00 37 1012.0
20260504171553 67 123 0.0 0.0 0.00 0.00 0.00 39 1012.4